Location: Eboldshausen
(51.7766°N, 10.0050°E)
Time: 06:57:22
(UTC+00:00)

MOS 1 Rocket - Pass Details

Date: 15 November 2025
Orbit: 610 x 813 km, 97.4° (Epoch: 13 December)

Event Time Altitude Azimuth Distance (km) Brightness Sun altitude
Rises 17:00:31 0° 160° (SSE) 2,871 6.4 -13.9°
Reaches altitude 10° 17:02:39 10° 159° (SSE) 1,981 5.6 -14.3°
Maximum altitude 17:06:56 76° 74° (ENE) 658 3.0 -14.9°
Drops below altitude 10° 17:11:27 10° 349° (N) 2,078 5.8 -15.6°
Sets 17:13:44 0° 348° (NNW) 3,024 6.6 -15.9°
